User: anonymous   Login
Location: Brno
(49.2000°N, 16.6330°E)
Time: 07:22:07
(UTC+02:00)
Language:

Cosmos 1603 - Orbit

View from above orbital plane
View from above orbital plane
View from above satellite
View from above satellite

Ground track
Ground track

The orbit data is extracted from the following two-line orbital elements,

1 15333U 84106A   15144.56244927 -.00000084  00000-0 -19035-4 0  9994
2 15333 071.0285 232.4598 0022155 275.6930 178.0588 14.14006956581591
Epoch (UTC): 24 May 2015 13:29:55
Eccentricity: 0.0022155
inclination: 71.0285°
perigee height: 829 km
apogee height: 861 km
right ascension of ascending node: 232.4598°
argument of perigee: 275.6930°
revolutions per day: 14.14006956
mean anomaly at epoch: 178.0588°
orbit number at epoch: 58159

The dashed part of the orbit path shows where the satellite is in the earth's shadow,  

DLR